Kentucky Lake Weather Center

Moon Phase Calendar



Kentucky Lake Water Level
Online Cameras

 


      

Current Conditions in Paris
5/18/2022 11:59:15 PM

71°F
Feels Like 72
Clouds
Humidity
94%
Pressure
29.83"
Wind
2.4 mph (SSW)
Dew Point
69°F
UV Index
0/10 (Low)
Visibility
6 mi

Hourly Forecast

Date & Time Wed, May 18
11:00 PM
Thu, May 19
12:00 AM
Thu, May 19
1:00 AM
Thu, May 19
2:00 AM
Thu, May 19
3:00 AM
Thu, May 19
4:00 AM
Thu, May 19
5:00 AM
Thu, May 19
6:00 AM
Thu, May 19
7:00 AM
Thu, May 19
8:00 AM
Thu, May 19
9:00 AM
Thu, May 19
10:00 AM
Thu, May 19
11:00 AM
Thu, May 19
12:00 PM
Thu, May 19
1:00 PM
Thu, May 19
2:00 PM
Thu, May 19
3:00 PM
Thu, May 19
4:00 PM
Thu, May 19
5:00 PM
Thu, May 19
6:00 PM
Thu, May 19
7:00 PM
Thu, May 19
8:00 PM
Thu, May 19
9:00 PM
Thu, May 19
10:00 PM
Thu, May 19
11:00 PM
Fri, May 20
12:00 AM
Fri, May 20
1:00 AM
Fri, May 20
2:00 AM
Fri, May 20
3:00 AM
Fri, May 20
4:00 AM
Fri, May 20
5:00 AM
Fri, May 20
6:00 AM
Fri, May 20
7:00 AM
Fri, May 20
8:00 AM
Fri, May 20
9:00 AM
Fri, May 20
10:00 AM
Fri, May 20
11:00 AM
Fri, May 20
12:00 PM
Fri, May 20
1:00 PM
Fri, May 20
2:00 PM
Fri, May 20
3:00 PM
Fri, May 20
4:00 PM
Fri, May 20
5:00 PM
Fri, May 20
6:00 PM
Fri, May 20
7:00 PM
Fri, May 20
8:00 PM
Fri, May 20
9:00 PM
Fri, May 20
10:00 PM
Condition
Rain

Clouds

Clouds

Clouds

Rain

Rain

Rain

Rain

Rain

Rain

Rain

Clouds

Clouds

Clouds

Clouds

Clouds

Clouds

Clouds

Clouds

Clouds

Clouds

Clouds

Clouds

Clouds

Clouds

Clouds

Clouds

Clear

Clear

Clear

Clear

Clear

Clear

Clear

Clear

Clear

Clear

Clear

Clear

Clear

Clear

Clear

Clear

Clear

Clear

Clouds

Clouds

Clouds
Temperature 70°F71°F70°F70°F67°F67°F64°F64°F65°F66°F70°F73°F79°F83°F85°F86°F86°F86°F84°F81°F78°F76°F77°F77°F77°F76°F76°F76°F76°F75°F73°F72°F70°F72°F75°F78°F80°F82°F84°F85°F86°F86°F84°F82°F78°F75°F73°F72°F
Feels Like 72°F72°F71°F71°F68°F68°F65°F65°F66°F67°F72°F74°F80°F88°F89°F91°F92°F92°F89°F84°F78°F77°F77°F77°F77°F76°F76°F76°F76°F75°F73°F72°F71°F73°F76°F78°F80°F85°F87°F88°F89°F89°F88°F85°F79°F75°F74°F72°F
Cloudiness 80%81%82%89%92%96%100%100%100%100%100%100%100%94%91%71%57%66%75%79%68%24%13%33%36%32%28%3%1%1%1%1%1%0%0%0%0%0%0%0%0%2%2%3%5%86%63%44%
Visibility 6 mi6 mi6 mi4 mi6 mi6 mi6 mi6 mi6 mi6 mi6 mi6 mi6 mi6 mi6 mi6 mi6 mi6 mi6 mi6 mi6 mi6 mi6 mi6 mi6 mi6 mi6 mi6 mi6 mi6 mi6 mi6 mi6 mi6 mi6 mi6 mi6 mi6 mi6 mi6 mi6 mi6 mi6 mi6 mi6 mi6 mi6 mi6 mi
Precipitation 94%74%77%73%98%100%100%100%100%89%86%86%82%79%67%0%0%0%0%0%0%0%0%0%0%0%0%0%0%0%0%0%0%0%0%0%0%0%0%0%0%0%0%0%0%0%0%0%
Humidity 94%94%94%95%95%94%94%95%97%96%94%90%77%67%63%61%62%63%66%68%70%65%60%56%55%58%59%57%57%61%64%70%79%79%75%70%65%62%59%57%57%57%59%64%70%72%71%73%
Dew Point 69°F69°F68°F68°F66°F65°F63°F63°F64°F65°F69°F70°F71°F71°F70°F70°F71°F72°F71°F69°F67°F64°F62°F60°F59°F60°F60°F59°F60°F60°F61°F61°F63°F65°F67°F67°F67°F67°F68°F68°F68°F68°F68°F68°F67°F65°F63°F62°F
Pressure 29.83"29.83"29.83"29.83"29.8"29.83"29.8"29.8"29.83"29.83"29.83"29.8"29.8"29.77"29.77"29.74"29.71"29.71"29.68"29.68"29.68"29.68"29.68"29.68"29.68"29.68"29.68"29.68"29.68"29.68"29.71"29.74"29.77"29.77"29.8"29.8"29.8"29.8"29.8"29.8"29.8"29.8"29.8"29.8"29.83"29.83"29.85"29.85"
Wind Speed 5.3 mph2.4 mph4.8 mph15.8 mph10.3 mph11.2 mph3.2 mph4.2 mph3.6 mph3.8 mph8 mph9.2 mph11.8 mph13 mph13.6 mph12.6 mph11.9 mph11.7 mph13.4 mph13.5 mph13.1 mph12.4 mph13.8 mph14.5 mph13.9 mph13 mph13.5 mph14.7 mph15.2 mph14.7 mph14 mph13.3 mph13.4 mph15.2 mph16.6 mph17.5 mph17.9 mph17.8 mph17 mph16.2 mph15.3 mph14.4 mph13.4 mph12.1 mph9.4 mph7.7 mph7.4 mph6.7 mph
Wind
Direction
247°
WSW
200°
SSW
190°
S
245°
WSW
240°
WSW
239°
WSW
199°
SSW
246°
WSW
248°
WSW
248°
WSW
205°
SSW
212°
SSW
230°
SW
230°
SW
225°
SW
225°
SW
221°
SW
223°
SW
224°
SW
210°
SSW
217°
SW
212°
SSW
202°
SSW
203°
SSW
205°
SSW
202°
SSW
203°
SSW
203°
SSW
203°
SSW
203°
SSW
199°
SSW
195°
SSW
189°
S
192°
SSW
203°
SSW
201°
SSW
202°
SSW
202°
SSW
200°
SSW
200°
SSW
196°
SSW
194°
SSW
188°
S
187°
S
186°
S
183°
S
185°
S
190°
S

Daily Forecast

Date High Low Precip. Humidity
Today
May 18

Rain
84 °F
59 °F
94%
62%
Thursday
May 19

Rain
86 °F
64 °F
100%
67%
Friday
May 20

Clear
86 °F
70 °F
0%
62%
Saturday
May 21

Clear
87 °F
68 °F
7%
55%
Sunday
May 22

Rain
74 °F
57 °F
100%
97%
Monday
May 23

Clouds
69 °F
52 °F
0%
49%
Tuesday
May 24

Rain
76 °F
51 °F
100%
68%
Wednesday
May 25

Rain
77 °F
66 °F
100%
85%
Thursday
May 26

Rain
81 °F
67 °F
100%
87%
Friday
May 27

Rain
69 °F
67 °F
100%
96%
Saturday
May 28

Rain
84 °F
64 °F
52%
64%
Sunday
May 29

Rain
82 °F
70 °F
100%
87%
Monday
May 30

Rain
82 °F
70 °F
99%
76%
Tuesday
May 31

Rain
86 °F
72 °F
90%
74%
Wednesday
Jun 1

Rain
77 °F
55 °F
96%
92%
Thursday
Jun 2

Rain
73 °F
50 °F
31%
59%

Temperature 8-14 Day Outlook



Precipitation 8-14 Day Outlook




Quick Links
Kentucky Lake News
Kentucky Lake Photos
Kentucky Lake Videos




About Us
Contact Us
Site Map
Search Site
Advertise With Us
   
www.GoKentuckyLake.com
THE KENTUCKY LAKE WEBSITE

Copyright 2022, Lakes Online
Privacy    |    Legal